Lid_Strength_Index
2 2 2 2 2 2 2 3 4 6 5 3 3 1 1 0 1 0 0 1 1 2 3 2 2 1 1 0 0 2 3 3 4 4 3 3 1 -1
1 2 2 2 2 1 2 2 2 4 5 3 2 1 1 1 0 0 1 1 2 2 2 2 2 1 1 1 1 2 3 4 4 5 5 5 3 -0
2 2 2 2 2 2 2 2 2 3 4 3 2 2 2 1 1 1 0 0 0 2 2 3 3 2 2 2 2 2 2 4 5 5 6 6 5 1
2 2 2 1 2 2 2 3 2 2 3 4 3 2 2 1 2 2 1 -0 1 1 2 3 3 2 3 3 3 3 4 4 5 6 7 7 7 3
1 2 2 2 2 2 2 2 2 2 2 2 3 2 2 2 3 2 2 2 0 1 2 2 3 3 4 4 5 5 7 7 7 7 8 8 8 6
1 1 1 1 2 2 3 3 3 3 3 3 3 3 3 2 2 2 2 1 1 -0 0 1 2 2 3 4 4 4 6 8 9 8 9 9 8 8
2 1 1 1 2 2 1 2 2 3 3 4 4 4 3 3 3 2 2 2 2 2 2 1 2 1 1 2 2 2 4 6 9 9 10 10 10 9
2 1 1 1 2 3 4 3 2 2 3 4 3 4 3 3 3 3 4 5 5 3 2 2 2 1 0 1 2 3 4 5 7 8 9 10 10 10
2 1 1 0 2 1 2 4 4 4 4 2 3 3 3 4 4 4 4 4 5 3 3 2 2 2 1 1 2 3 4 5 7 8 9 10 10 11
2 2 1 1 1 1 1 2 1 1 3 3 3 2 2 2 3 3 4 4 4 3 2 3 2 2 2 1 3 4 5 5 7 8 8 10 11 12
2 2 2 2 4 7 3 2 2 2 2 5 5 5 5 6 5 3 4 4 3 3 2 3 2 3 3 3 2 5 6 7 8 8 8 10 11 12
3 2 7 6 9 10 5 5 4 3 3 3 3 3 5 4 6 4 2 3 3 4 2 3 4 3 4 4 3 2 4 8 9 10 9 10 11 9
4 4 3 7 7 8 10 7 5 4 4 3 3 3 2 2 2 3 3 2 2 3 2 2 3 4 4 4 3 3 4 5 6 8 11 11 12 10
6 5 5 9 10 10 9 8 9 8 5 4 3 2 2 2 1 1 1 2 1 1 0 2 3 3 4 5 4 3 3 4 6 5 7 10 12 12
6 6 8 9 9 7 7 7 7 4 4 4 3 2 2 2 2 2 1 1 1 1 1 1 2 1 2 3 3 3 4 3 4 5 6 7 8 9
8 9 8 8 8 7 6 5 4 3 2 2 2 1 1 1 2 2 2 2 3 2 1 0 1 1 2 2 2 2 2 3 2 4 4 6 7 7
9 6 6 7 7 7 6 5 4 3 3 2 1 2 1 1 1 1 2 2 3 3 2 2 2 1 1 1 3 2 2 2 1 1 4 4 5 6
7 7 7 6 6 5 4 3 2 2 1 1 1 2 2 2 2 1 2 2 3 2 2 2 2 4 2 1 2 2 2 2 1 1 3 3 2 4
8 8 7 6 5 4 3 2 2 1 1 1 1 2 1 2 2 2 2 2 2 2 2 2 3 3 4 5 2 4 2 2 2 3 2 2 2 2
10 9 8 7 6 6 5 5 3 1 1 1 2 1 2 3 2 2 2 3 3 2 3 2 2 2 4 4 4 2 8 1 2 2 2 2 5 9
10 10 9 8 7 6 6 6 5 4 3 3 2 3 4 3 4 5 5 6 5 2 3 3 2 3 1 1 3 3 1 9 4 1 2 3 5 6
10 10 10 9 9 9 8 7 6 5 5 4 4 4 4 4 5 5 4 6 5 3 2 2 1 1 2 3 4 3 3 3 8 9 7 5 4 5
11 11 10 10 9 9 9 8 7 7 5 5 6 5 6 6 6 5 5 5 4 5 4 2 2 2 2 2 3 3 3 3 4 4 4 7 8 9